Tracking 28125 objects as of 4-Oct-2023
HD Live streaming from Space Station
objects crossing your sky now

THORAD AGENA D DEB

Track THORAD AGENA D DEB now!
10-day predictions


NORAD ID: 4677
Int'l Code: 1970-025BA
Perigee: 1,043.1 km
Apogee: 1,058.2 km
Inclination: 99.9 °
Period: 106.0 minutes
Semi major axis: 7421 km
RCS: 0.0681 m2 (small)
Launch date: April 8, 1970
Source: United States (US)
Launch site: AIR FORCE WESTERN TEST RANGE (AFWTR)

Note: This is SATELLITE DEBRIS
Your satellite tracking list
Your tracking list is empty




NASA's NSSDC Master Catalog

Two Line Element Set (TLE):
1 04677U 70025BA  23276.84686792  .00000271  00000-0  43986-3 0  9991
2 04677  99.9490   8.1228 0010118  97.6807  30.2838 13.57851248644524
Source of the keplerian elements: AFSPC